Location: ??
(35.5283°N, 139.7282°E)
Time: 18:38:20
(UTC+00:00)

Daily predictions for brighter satellites

Satellite Brightness Start Highest point End
(mag) Time Altitude Azimuth Time Altitude Azimuth Time Altitude Azimuth
BREEZE-M DEB (TANK) 3.3 12:05:43 10° NW 12:09:38 82° SW 12:11:43 50° SE
USA 245 3.8 12:10:54 66° WNW 12:10:54 66° WNW 12:14:33 10° NNW
Cosmos 2333 4.1 12:06:20 10° NNW 12:11:55 66° ENE 12:12:08 66° E
Cosmos 1408 Rocket 4.2 12:11:47 48° WSW 12:12:13 51° W 12:16:27 10° N
BREEZE-M R/B 3.4 12:07:35 10° WSW 12:13:04 52° NW 12:14:53 25° NNE
Meteor 1-10 Rocket 4.0 12:08:20 10° N 12:13:53 87° E 12:14:18 78° SSE
COSMOS 2455 3.6 12:08:58 10° SW 12:14:47 52° WNW 12:20:40 10° NNE
Lacrosse 5 2.6 12:19:08 42° NE 12:19:08 42° NE 12:22:28 10° NE
Cosmos 1743 Rocket 4.2 12:20:05 51° N 12:20:05 51° N 12:23:26 10° N
CARTOSAT-1 4.2 12:23:34 54° NW 12:23:34 54° NW 12:27:09 10° NNW
Cosmos 972 Rocket 4.1 12:23:37 70° WSW 12:23:56 73° WNW 12:28:56 10° N
COSMOS 2428 3.3 12:18:40 10° N 12:23:49 45° NE 12:23:49 45° NE
APEX 4.4 12:25:07 61° ENE 12:25:07 61° ENE 12:30:45 10° NNE
Cosmos 489 Rocket 4.3 12:24:17 75° SE 12:24:36 77° ESE 12:30:58 10° NNE
Cosmos 2266 Rocket 4.0 12:27:01 61° SSW 12:28:07 78° W 12:34:24 10° N
Cosmos 2360 Rocket 3.0 12:30:01 10° NW 12:35:15 40° WSW 12:35:45 40° WSW
Terra 2.6 12:40:03 48° N 12:40:03 48° N 12:43:32 10° N
Cosmos 1048 Rocket 4.4 12:38:54 58° WNW 12:38:54 58° WNW 12:43:51 10° N
Cosmos 2285 Rocket 4.0 12:42:51 10° NNW 12:48:47 76° NNE 12:48:47 76° NNE
Cosmos 2315 Rocket 4.0 12:47:23 10° N 12:53:21 79° N 12:53:21 79° N
ERS-1 Rocket 4.0 13:00:14 40° WNW 13:00:14 40° WNW 13:04:06 10° NNW
Cosmos 2297 Rocket 3.6 13:02:37 29° NE 13:02:37 29° NE 13:05:21 10° NNE
Cosmos 2333 Rocket 3.1 13:04:09 10° NW 13:08:31 41° WNW 13:08:31 41° WNW
Cosmos 2227 Rocket 3.8 13:15:54 25° NE 13:15:54 25° NE 13:18:14 10° NNE
Cosmos 2237 Rocket 3.4 13:07:36 10° N 13:11:31 35° NNE 13:11:31 35° NNE
Cosmos 2219 Rocket 3.5 13:19:36 10° NW 13:23:19 34° WNW 13:23:19 34° WNW
ATLAS 5 CENTAUR R/B 3.1 13:26:48 10° NW 13:31:06 49° NW 13:31:06 49° NW
SL-16 R/B 4.0 13:40:25 10° N 13:43:41 23° NE 13:43:41 23° NE
CZ-4C R/B 4.4 13:47:13 10° N 13:53:24 27° NE 13:55:35 24° ENE
USA 267 3.9 13:47:08 10° NE 13:51:41 48° NE 13:51:41 48° NE
Lacrosse 5 4.4 13:58:05 12° WNW 14:00:57 17° NNW 14:04:19 10° N
Cosmos 2297 Rocket 4.4 14:44:22 18° NW 14:44:22 18° NW 14:48:00 10° NNW
Cosmos 2344 4.1 14:54:43 46° ENE 14:54:43 46° ENE 14:59:57 10° NE
Cosmos 2227 Rocket 4.3 14:57:41 18° NW 14:57:41 18° NW 15:01:02 10° NNW
Cosmos 2263 Rocket 3.8 15:05:04 30° NNE 15:05:04 30° NNE 15:07:52 10° NNE
SL-16 R/B 4.3 15:24:02 10° NW 15:25:32 18° NW 15:25:32 18° NW
CZ-2D R/B 4.0 15:30:59 10° NNE 15:33:49 25° ENE 15:33:49 25° ENE
CZ-4C R/B 3.4 15:34:55 10° NW 15:40:42 56° NW 15:40:42 56° NW
Resurs 1-4 Rocket 3.5 15:53:48 10° NNE 15:56:58 35° NE 15:56:58 35° NE
USA 234 3.9 16:08:49 46° NW 16:08:49 46° NW 16:13:12 10° NW
Cosmos 1844 Rocket 3.6 16:12:20 44° NE 16:12:20 44° NE 16:16:18 10° NNE
ADEOS Rocket 3.7 16:12:40 42° ENE 16:12:40 42° ENE 16:17:31 10° N
SL-16 R/B 2.9 16:15:12 59° ENE 16:15:12 59° ENE 16:21:00 10° N
ADEOS II 3.5 16:11:23 10° NNE 16:15:04 32° ENE 16:15:04 32° ENE
Milstar 3 3.7 16:33:35 38° SE 16:33:35 38° SE 16:37:57 10° E
Cosmos 2218 Rocket 4.0 16:37:19 77° NE 16:37:19 77° NE 16:43:14 10° N
IRS-1D 4.3 16:40:48 10° NNE 16:45:07 47° ENE 16:45:07 47° ENE
IDEFIX/ARIANE 42P 3.6 16:41:15 10° NNE 16:46:00 38° E 16:46:00 38° E
Cosmos 2263 Rocket 4.4 16:46:45 13° NW 16:46:46 13° NW 16:49:27 10° NNW
Aureole 1 Rocket 4.1 16:53:45 63° SE 16:54:22 67° ESE 17:01:50 10° NNE
Helios 1B rocket 4.2 17:01:27 10° N 17:03:31 26° NNW 17:03:31 26° NNW
Cosmos 1821 Rocket 4.2 17:07:49 49° SE 17:09:12 62° E 17:15:11 10° NNE
Cosmos 1867 4.5 17:14:08 36° NW 17:14:08 36° NW 17:19:04 10° NNE
CBERS-1 4.0 17:10:22 10° NNE 17:15:30 76° ESE 17:15:38 75° ESE
CZ-2D R/B 3.5 17:11:12 10° N 17:15:08 27° WNW 17:15:08 27° WNW
Meteor 1-24 Rocket 4.2 17:21:31 10° N 17:27:11 57° E 17:30:33 23° SSE
Cosmos 1315 Rocket 3.3 17:31:29 54° N 17:31:29 54° N 17:34:40 10° N
Cosmos 841 Rocket 3.4 17:28:17 10° NNW 17:33:34 85° WSW 17:34:41 57° S
Cosmos 1607 4.0 17:32:02 51° SSW 17:33:47 81° ESE 17:40:17 10° NNE
ATLAS 2A CENTAUR R/B 4.4 17:32:11 40° SW 17:35:16 50° S 18:13:12 10° ESE
Cosmos 2239 Rocket 4.4 17:33:51 43° S 17:36:05 83° E 17:42:16 10° N
SL-4 R/B 4.2 17:35:45 16° SE 17:36:05 16° SE 17:38:47 10° E
Cosmos 1470 2.9 17:38:12 71° NE 17:38:12 71° NE 17:41:46 10° N
Resurs 1-4 Rocket 4.0 17:35:09 10° NNW 17:38:03 16° WNW 17:38:03 16° WNW
NOSS 3-4 (A) 4.1 17:32:49 10° NW 17:39:51 50° WSW 17:43:01 33° SSW
NOSS 3-4 (C) 4.1 17:32:55 10° NW 17:39:57 50° WSW 17:43:26 31° S
CZ-3 R/B 4.4 17:17:15 30° SW 17:41:12 59° S 17:53:24 10° E
Cosmos 540 Rocket 3.6 17:41:13 10° NNW 17:45:58 50° W 17:45:58 50° W
CZ-4C R/B 3.7 17:45:23 38° SSE 17:46:57 72° ENE 17:51:20 10° N
ARIANE 5 R/B 2.8 17:42:09 10° NNE 17:47:22 67° ESE 17:49:39 33° S
Cosmos 1346 Rocket 3.9 17:44:50 10° NNW 17:47:14 32° NW 17:47:14 32° NW
ATLAS 2AS CENTAUR R/B 2.5 17:42:01 10° NNW 17:49:08 83° WSW 17:55:41 10° SSE
Cosmos 1536 Rocket 3.4 17:48:09 10° NNW 17:52:33 71° W 17:53:05 63° SW
Spot 1 4.3 17:50:41 25° SSE 17:52:55 63° ENE 17:56:57 10° N
Cosmos 1814 Rocket 3.9 17:48:23 10° NNW 17:53:41 87° WSW 17:58:04 16° SSE
Cosmos 1844 Rocket 4.4 17:54:00 17° WNW 17:55:02 17° NW 17:58:43 10° NNW
ADEOS II 3.4 17:51:30 10° NNW 17:55:39 24° WNW 17:56:00 24° WNW
CZ-2C R/B 3.4 17:52:36 10° NNE 17:57:01 40° E 18:00:35 15° SSE
Okean 2 Rocket 4.3 17:58:14 27° WNW 17:58:14 27° WNW 18:01:39 10° NNW
ADEOS Rocket 4.3 17:59:37 18° WNW 17:59:37 18° WNW 18:02:01 10° NW
SL-16 R/B 4.1 18:00:18 17° WNW 18:00:18 17° WNW 18:02:57 10° NW
BREEZE-M DEB (TANK) 3.0 17:57:42 29° NW 17:58:56 54° NNE 18:02:20 10° ESE
Cosmos 1726 2.8 18:00:16 40° NW 18:00:16 40° NW 18:03:17 10° N
IRS-P3 4.0 17:54:54 10° N 18:00:14 74° WNW 18:02:20 38° SSW
Cosmos 1934 Rocket 3.9 17:58:14 26° S 18:02:00 90° E 18:08:19 10° N
Cosmos 1184 Rocket 3.9 18:02:02 10° NNW 18:04:00 32° NW 18:04:00 32° NW
Cosmos 1953 3.7 18:02:29 14° SSE 18:05:34 36° E 18:09:15 10° NNE
SL-08 R/B 3.7 18:02:22 10° SSE 18:07:16 67° ENE 18:12:10 10° N
CZ-3 Stage 3 3.4 18:07:17 27° S 18:07:17 27° S 18:13:28 10° SE
Cosmos 1535 Rocket 4.5 18:05:19 21° S 18:09:48 89° W 18:16:06 10° N
MSX 4.2 18:07:15 10° N 18:12:39 45° WNW 18:14:55 30° WSW
Cosmos 2278 Rocket 2.1 18:09:54 32° SSW 18:12:40 79° WNW 18:18:21 10° NNE
Cosmos 2208 Rocket 3.8 18:10:13 10° NNW 18:15:23 71° WSW 18:20:30 10° S
CZ-4B R/B 3.2 18:11:38 10° N 18:16:24 78° WNW 18:18:56 28° SSW
X-37B 3.2 18:15:07 12° NW 18:16:49 16° N 18:18:58 10° NNE
Meteor 2-5 Rocket 4.3 18:14:45 10° NNW 18:20:02 37° W 18:22:10 27° SW
ALOS 3.2 18:16:50 10° NNE 18:21:20 46° E 18:25:48 10° S
RESURS DK-1 4.0 18:19:03 10° N 18:22:55 36° ENE 18:26:43 10° SE
Spot 4 Rocket 4.0 18:17:56 10° NNE 18:23:07 85° ESE 18:27:18 16° SSW
Cosmos 1758 3.7 18:22:38 36° WSW 18:23:37 44° W 18:27:27 10° N
IDEFIX/ARIANE 42P 3.9 18:21:25 10° NNW 18:25:22 23° WNW 18:26:49 20° W
Cosmos 1605 Rocket 4.0 18:19:37 10° S 18:25:52 87° E 18:32:10 10° N
GPS 2-04 Rocket1 2.7 18:26:02 28° W 18:28:10 87° N 18:32:18 10° E
Cosmos 1908 3.3 18:25:52 17° S 18:28:42 73° E 18:32:29 10° N
Lacrosse 5 rocket 2.8 18:25:55 15° S 18:29:03 33° SE 18:32:58 10° ENE
Cosmos 1943 Rocket 4.2 18:26:42 10° SSE 18:31:04 25° ESE 18:35:26 10° NE
Tiangong 3.2 18:30:57 14° SSE 18:32:03 17° SE 18:34:09 10° E
Okean 1 Rocket 4.0 18:31:09 26° WSW 18:32:25 30° WNW 18:36:23 10° NNW
Cosmos 405 3.2 18:29:53 16° S 18:32:28 67° E 18:35:55 10° NNE
Cosmos 968 Rocket 4.1 18:31:17 25° WSW 18:33:33 37° WNW 18:38:18 10° N
CZ-2C R/B 3.4 18:32:56 12° S 18:34:50 16° SSE 18:37:19 10° ESE
MOS 1 Rocket 4.4 18:29:51 10° SSE 18:34:59 55° ENE 18:40:17 10° N
Chunghua 1 4.4 18:33:55 25° W 18:35:58 73° S 18:39:42 10° ESE
Cosmos 44 Rocket 4.4 18:34:05 10° WNW 18:38:02 23° WSW 18:39:03 22° SW
SL-24 R/B 4.3 18:36:06 10° S 18:40:52 53° W 18:45:03 10° NNW
CZ-2C R/B 2.7 18:45:21 10° N 18:49:10 71° WNW 18:52:53 11° SSW
Cosmos 921 Rocket 4.2 18:52:18 10° NW 18:55:54 24° W 18:59:19 11° SSW
Cosmos 2123 Rocket 4.4 18:52:00 10° NNW 18:57:41 40° W 19:03:22 10° SSW
COSMOS 2406 3.2 18:53:13 10° NNW 18:58:58 72° WSW 19:04:42 10° SSE
Meteor 1-21 Rocket 4.2 18:55:49 10° NNW 19:01:30 77° W 19:07:02 10° S
Cosmos 2297 4.0 19:04:04 10° SSW 19:09:38 71° ESE 19:15:15 10° NNE
Cosmos 1300 2.8 19:08:57 10° S 19:12:44 78° E 19:16:32 10° N
Milstar 3 3.2 19:07:31 10° W 19:14:14 42° S 19:20:36 10° ESE
SL-4 R/B 2.4 19:11:19 11° WSW 19:15:14 61° NW 19:19:42 10° NE
Lacrosse 5 4.3 19:12:12 10° NNW 19:16:22 25° NE 19:20:32 10° E
Cosmos 2173 Rocket 4.2 19:11:01 10° S 19:17:22 80° E 19:23:41 10° N
Cosmos 1833 Rocket 3.0 19:12:18 10° NW 19:17:35 42° WSW 19:22:48 10° S
Cosmos 1892 Rocket 4.1 19:13:44 10° NNW 19:17:43 36° W 19:21:40 10° SSW
SJ 16-02 2.1 19:16:05 10° S 19:20:19 54° ESE 19:24:36 10° NNE
SL-8 R/B 3.7 19:15:32 10° NW 19:20:21 89° SSW 19:25:10 10° SE
Cosmos 1455 Rocket 4.1 19:17:52 10° SW 19:21:42 28° WNW 19:25:32 10° NNW
Cosmos 1544 Rocket 3.9 19:19:51 10° SSW 19:24:04 46° W 19:28:17 10° N
ARIANE 5 R/B 4.4 19:23:16 10° NNW 19:25:51 14° WNW 19:28:24 10° W
Cosmos 1703 3.9 19:25:34 10° NNW 19:29:06 35° W 19:32:38 10° SSW
USA 81 4.2 19:24:54 10° SSW 19:30:03 56° W 19:35:15 10° N
Cosmos 1484 Rocket 3.4 19:27:12 10° N 19:30:57 40° WNW 19:34:42 10° SW
